Regional Weather Roundup
Issued by NWS Cleveland, OH

Home | Current Version | Previous Version | Text Only | Print | Product List | Glossary Off
Versions: 1 2 3 4 5 6 7 8 9 10 11 12 13 14 15 16 17 18 19 20 21 22 23 24 25 26 27 28 29 30 31 32 33 34 35 36 37 38 39 40 41 42 43 44 45 46 47 48 49 50

000
ASUS41 KCLE 041310
RWRCLE
OHIO REGIONAL WEATHER ROUNDUP
NATIONAL WEATHER SERVICE WILMINGTON, OH
800 AM EST WED MAR 04 2015

NOTE: "FAIR" INDICATES FEW OR NO CLOUDS BELOW 12,000 FEET WITH NO
SIGNIFICANT WEATHER AND/OR OBSTRUCTIONS TO VISIBILITY.

OHZ001>008-015>018-024>027-034-035-043-044-041400-
   NORTHWEST OHIO

CITY           SKY/WX    TMP DP  RH WIND       PRES   REMARKS
DEFIANCE       CLOUDY    32  25  75 CALM      29.95R
FINDLAY        CLOUDY    33  25  72 NW7       29.92R WCI  27
TOLEDO EXPRESS CLOUDY    31  25  78 W5        29.93R WCI  26
TOLEDO EXEC    CLOUDY    32  25  75 W5        29.94R WCI  27
LIMA           CLOUDY    33  27  78 NW7       29.92R WCI  27
$$

OHZ009>014-019>023-028>033-038-089-041400-
   NORTHEAST OHIO

CITY           SKY/WX    TMP DP  RH WIND       PRES   REMARKS
CLE-HOPKINS    CLOUDY    32  26  78 NW10      29.94R WCI  24
CLE-LAKEFRONT  CLOUDY    33  30  88 MISG      29.91R
CUY CO. ARPT   CLOUDY    34  30  86 NW9       29.91R WCI  26
LORAIN-ELYRIA  CLOUDY    32  25  75 NW8       29.91R WCI  25
ASHTABULA      CLOUDY    32  25  75 NW7       29.90R WCI  26
AKRON-CANTON   CLOUDY    34  29  82 W7        29.89R WCI  28
WOOSTER        CLOUDY    33  30  88 W5        29.90R FOG     WCI  29
MANSFIELD      CLOUDY    32  29  88 W6        29.90R WCI  26
YOUNGSTOWN     CLOUDY    33  29  85 W6        29.86R WCI  28
$$

OHZ042-051>053-060>062-070>072-077>081-041400-
  SOUTHWEST OHIO

CITY           SKY/WX    TMP DP  RH WIND       PRES   REMARKS
CINC-COVINGTON FOG       36  34  92 NW7       29.95R VSB 1/2
CINC-LUNKEN    LGT RAIN  35  35 100 CALM      29.97R FOG
HAMILTON       CLOUDY    34  34 100 NW3       29.98R FOG
DAYTON         CLOUDY    34  31  88 W6        29.96R FOG     WCI  29
WRIGHT-PAT AFB CLOUDY    33  33  99 SW3       29.95R FOG
DAYTON GENERAL CLOUDY    34  33  96 W3        29.94R FOG
WILMINGTON     LGT RAIN  34  32  92 NW3       29.94R FOG
$$

OHZ036-037-039>041-045>050-054>059-063>069-073>076-082>088-041400-
  CENTRAL AND SOUTHEAST OHIO

CITY           SKY/WX    TMP DP  RH WIND       PRES   REMARKS
COLUMBUS       LGTSLEET  34  34 100 SW3       29.92R
OSU AIRPORT    CLOUDY    33  32  96 SW3       29.93R FOG
BOLTON FIELD   CLOUDY    32  32 100 S3        29.93R FOG
RICKENBACK AFB MIX PCPN  33  32  98 SW6       29.93R WCI  27
NEWARK         CLOUDY    35  32  88 SW6       29.92R FOG
MARION         CLOUDY    33  29  85 W6        29.92R FOG     WCI  28
LANCASTER      CLOUDY    35  33  92 CALM      29.94R FOG
ZANESVILLE     LGT RAIN  34  32  92 S6        29.93R FOG     WCI  29
NEW PHILLY     CLOUDY    35  32  88 CALM      29.91S FOG
$$



USA.gov is the U.S. government's official web portal to all federal, state and local government web resources and services.